Location: ????????
(56.1167°N, 38.6333°E)
Time: 21:35:09
(UTC+00:00)

Cosmos 44 Rocket - Pass Details

Date: 18 November 2025
Orbit: 637 x 741 km, 65.1° (Epoch: 14 December)

Event Time Altitude Azimuth Distance (km) Brightness Sun altitude
Rises 16:41:28 0° 240° (WSW) 3,021 7.3 -28.6°
Reaches altitude 10° 16:43:46 10° 243° (WSW) 2,126 6.4 -28.9°
Enters shadow 16:47:49 54° 283° (WNW) 844 3.9 -29.5°
